Rolla, MO

5:07 AM CDT on April 25, 2017 (GMT -0500)
Rolla National

Weather History for KVIH - May, 2013

Change the Weather History Date:

Saturday, May 11, 2013

  Actual Average Record
Temperature  
Mean Temperature 56 °F 62 °F  
Max Temperature 68 °F 73 °F 90 °F (2005)
Min Temperature 44 °F 52 °F 36 °F (1952)
Degree Days  
Heating Degree Days 9 5  
Month to date heating degree days 104 59  
Since 1 July heating degree days 4894 4777  
Cooling Degree Days 0 2  
Month to date cooling degree days 7 16  
Year to date cooling degree days 20 42  
Growing Degree Days 6 (Base 50)    
Moisture  
Dew Point 45 °F    
Average Humidity 66    
Maximum Humidity 100    
Minimum Humidity 32    
Precipitation  
Precipitation 0.00 in 0.16 in 1.29 in (1979)
Month to date precipitation 1.80 1.79  
Year to date precipitation 15.97 13.56  
Sea Level Pressure  
Sea Level Pressure 30.05 in    
Wind  
Wind Speed 10 mph (NW)    
Max Wind Speed 22 mph    
Max Gust Speed 29 mph    
Visibility 8 miles    
Events Fog    
T = Trace of Precipitation, MM = Missing Value Source: NWS Daily Summary

Daily Weather History Graph

Daily Weather History Graph

Search for Another Location

Airport or City:

Trip Planner

Search our weather history database for the weather conditions in past years. The results will help you decide how hot, cold, wet, or windy it might be!

Date:

Astronomy

May. 11, 2013 Rise Set
Actual Time 5:59 AM CDT 8:07 PM CDT
Civil Twilight 5:30 AM CDT 8:36 PM CDT
Nautical Twilight 4:54 AM CDT 9:12 PM CDT
Astronomical Twilight 4:15 AM CDT 9:51 PM CDT
Moon 7:08 AM CDT (5/11) 9:47 PM CDT (5/11)
Length of Visible Light 15h 06m
Length of Day
14h 07m
Waxing Crescent, 3% of the Moon is Illuminated
May 11
Waxing Crescent
May 17
First Quarter
May 24
Full
May 31
Last Quarter
Jun 8
New

Hourly Weather History & Observations

Time (CDT) Temp. Windchill Dew Point Humidity Pressure Visibility Wind Dir Wind Speed Gust Speed Precip Events Conditions
12:25 AM 53.6 °F - 51.8 °F 94% 30.02 in 10.0 mi North 3.5 mph - N/A   Overcast
12:38 AM 53.6 °F - 51.8 °F 94% 30.02 in 10.0 mi NNW 4.6 mph - N/A   Overcast
12:53 AM 53.1 °F - 51.1 °F 93% 30.01 in 10.0 mi North 4.6 mph - N/A   Overcast
1:03 AM 53.6 °F - 51.8 °F 94% 30.03 in 10.0 mi North 5.8 mph - N/A   Overcast
1:10 AM 53.6 °F - 50.0 °F 88% 30.03 in 10.0 mi North 5.8 mph - N/A   Mostly Cloudy
1:27 AM 51.8 °F - 50.0 °F 94% 30.04 in 10.0 mi NNW 3.5 mph - N/A   Scattered Clouds
1:53 AM 51.1 °F - 48.9 °F 92% 30.04 in 10.0 mi Calm Calm - N/A   Clear
2:06 AM 50.0 °F - 48.2 °F 94% 30.04 in 10.0 mi Calm Calm - N/A   Scattered Clouds
2:13 AM 50.0 °F - 48.2 °F 94% 30.04 in 10.0 mi NW 3.5 mph - N/A   Mostly Cloudy
2:53 AM 51.1 °F - 50.0 °F 96% 30.02 in 10.0 mi NNW 4.6 mph - N/A   Overcast
3:20 AM 48.2 °F - 48.2 °F 100% 30.03 in 7.0 mi Calm Calm - N/A   Mostly Cloudy
3:31 AM 48.2 °F - 48.2 °F 100% 30.03 in 6.0 mi NNW 3.5 mph - N/A   Scattered Clouds
3:38 AM 48.2 °F - 48.2 °F 100% 30.02 in 6.0 mi NNW 3.5 mph - N/A   Mostly Cloudy
3:53 AM 48.0 °F - 48.0 °F 100% 30.01 in 1.8 mi NNW 3.5 mph - N/A   Overcast
4:01 AM 48.2 °F - 48.2 °F 100% 30.02 in 0.5 mi NNW 3.5 mph - N/A Fog Fog
4:53 AM 48.0 °F - 48.0 °F 100% 30.02 in 0.2 mi Calm Calm - N/A Fog Fog
5:53 AM 48.0 °F - 46.9 °F 96% 30.02 in 0.2 mi WSW 4.6 mph - N/A Fog Fog
6:53 AM 48.0 °F - 48.0 °F 100% 30.03 in 0.2 mi West 3.5 mph - N/A Fog Fog
7:18 AM 48.2 °F - 48.2 °F 100% 30.03 in 1.0 mi West 5.8 mph - N/A   Mist
7:25 AM 48.2 °F - 48.2 °F 100% 30.04 in 3.0 mi West 5.8 mph - N/A   Mostly Cloudy
7:40 AM 50.0 °F - 48.2 °F 94% 30.04 in 6.0 mi West 5.8 mph - N/A   Scattered Clouds
7:53 AM 50.0 °F - 48.9 °F 96% 30.04 in 9.0 mi WSW 6.9 mph - N/A   Clear
8:53 AM 55.0 °F - 50.0 °F 83% 30.04 in 10.0 mi West 6.9 mph - N/A   Clear
9:53 AM 60.1 °F - 52.0 °F 75% 30.04 in 10.0 mi West 11.5 mph - N/A   Clear
10:53 AM 64.9 °F - 51.1 °F 61% 30.03 in 10.0 mi WNW 16.1 mph 23.0 mph N/A   Clear
11:53 AM 66.0 °F - 52.0 °F 60% 30.02 in 10.0 mi WNW 15.0 mph 20.7 mph N/A   Mostly Cloudy
12:53 PM 66.0 °F - 48.9 °F 54% 30.03 in 10.0 mi NW 17.3 mph 24.2 mph N/A   Overcast
1:53 PM 66.0 °F - 48.0 °F 52% 30.04 in 10.0 mi NNW 17.3 mph 23.0 mph N/A   Mostly Cloudy
2:53 PM 66.9 °F - 41.0 °F 39% 30.06 in 10.0 mi NNW 15.0 mph 21.9 mph N/A   Clear
3:53 PM 66.0 °F - 37.0 °F 34% 30.06 in 10.0 mi NW 19.6 mph 26.5 mph N/A   Clear
4:53 PM 64.0 °F - 35.1 °F 34% 30.08 in 10.0 mi NNW 15.0 mph 21.9 mph N/A   Clear
5:53 PM 62.1 °F - 33.1 °F 34% 30.09 in 10.0 mi WNW 15.0 mph 23.0 mph N/A   Clear
6:53 PM 60.1 °F - 30.9 °F 33% 30.11 in 10.0 mi NW 16.1 mph 21.9 mph N/A   Clear
7:53 PM 57.0 °F - 32.0 °F 39% 30.12 in 10.0 mi NW 13.8 mph 19.6 mph N/A   Clear
8:53 PM 53.1 °F - 32.0 °F 45% 30.14 in 10.0 mi NW 5.8 mph - N/A   Clear
9:53 PM 50.0 °F - 34.0 °F 54% 30.15 in 10.0 mi NNW 3.5 mph - N/A   Clear
10:53 PM 46.9 °F - 34.0 °F 61% 30.17 in 10.0 mi North 5.8 mph - N/A   Clear
11:53 PM 46.0 °F 43.1 °F 34.0 °F 63% 30.18 in 10.0 mi North 5.8 mph - N/A   Clear